Regional Weather Roundup
Issued by NWS Albany, NY

Home | Current Version | Previous Version | Text Only | Print | Product List | Glossary On
Versions: 1 2 3 4 5 6 7 8 9 10 11 12 13 14 15 16 17 18 19 20 21 22 23 24 25 26 27
000
ASUS41 KALY 181710
RWRALY

NEW YORK STATE HOURLY WEATHER ROUNDUP
NATIONAL WEATHER SERVICE ALBANY NY
100 PM EDT FRI AUG 18 2017

NOTE: "FAIR" INDICATES FEW OR NO CLOUDS BELOW 12,000 FEET WITH NO
SIGNIFICANT WEATHER AND/OR NO OBSTRUCTIONS TO VISIBILITY.

NYZ032-033-038>043-046>054-057>066-NYZ062>081-082-084-181800-
EAST


CITY           SKY/WX    TMP DP  RH WIND       PRES   REMARKS
ALBANY         LGT RAIN  74  71  91 S14G20    29.82F FOG
GLENS FALLS    CLOUDY    73  70  90 S6        29.80F
POUGHKEEPSIE   CLOUDY    78  71  79 S6        29.83F
NEWBURGH       CLOUDY    77  75  94 VRB6      29.86
MONTGOMERY     CLOUDY    78  73  84 S8        29.84F
WHITE PLAINS   CLOUDY    77  75  93 S6        29.86F FOG
ISLIP          CLOUDY    78  76  93 S15G22    29.87F
NEW YORK CITY  CLOUDY    82  76  81 SW15      29.84F
CENTRAL PARK   CLOUDY    79  77  94 MISG      29.88F FOG
$$

NYZ005>009-017-018-044>046-055-056-181800-
CENTRAL


CITY           SKY/WX    TMP DP  RH WIND       PRES   REMARKS
FULTON         MOSUNNY   83  67  58 SW10      29.76S
SYRACUSE       PTSUNNY   83  68  60 SW12      29.75F
ROME           CLOUDY    81  74  79 VRB3      29.77F
ELMIRA         PTSUNNY   81  71  71 SW7       29.79F
BINGHAMTON     LGT RAIN  72  71  97 SW6       29.85F FOG
MONTICELLO     CLOUDY    73  71  93 S9        29.89F FOG
$$

NYZ026>034-041>043-087-181800-
NORTH


CITY           SKY/WX    TMP DP  RH WIND       PRES   REMARKS
WATERTOWN      MOSUNNY   81  71  71 SW13G23   29.73F
FORT DRUM      NOT AVBL
OGDENSBURG     FAIR      84  71  63 SW15      29.70S
MASSENA        PTSUNNY   78  73  84 NE9       29.71F
SARANAC LAKE   PTSUNNY   78  71  79 SW13G21   29.78F
PLATTSBURGH    MOSUNNY   75  67  76 SE15      29.75F
$$

NYZ001>004-010>016-019>021-085-181800-
WEST


CITY           SKY/WX    TMP DP  RH WIND       PRES   REMARKS
NIAGARA FALLS  MOSUNNY   81  67  62 SW21G31   29.73S
BUFFALO        MOSUNNY   80  68  66 SW22G35   29.74F
DUNKIRK        SUNNY     79  68  69 W15G24    29.77S
JAMESTOWN      SUNNY     78  64  61 SW14G20   29.82F
WELLSVILLE     MOSUNNY   82  67  60 VRB7      29.85F
ROCHESTER      MOSUNNY   84  67  56 SW14      29.74F
PENN YAN       CLOUDY    83  68  60 VRB3      29.78F
$$

             KEY
       WCI = WIND CHILL INDEX
       VSB = VISIBILITY
       HX  = HEAT INDEX
$$




USA.gov is the U.S. government's official web portal to all federal, state and local government web resources and services.